WESTFORD NEEDLES, 2362

Orbit data source: Space-Track

WESTFORD NEEDLES, 2362 is space debris originally from a launch on Thu, 09 May 1963 UTC launched from the Air Force Western Test Range (AFWTR). Debris objects in space refer to the collection of defunct objects orbiting the Earth. Examples of debris include non-operational satellites, rocket bodies, and fragments generated from explosions, collisions, or faulty payload assembly.

Loading next visibility...
Identifier
2362, 1963-014M
Orbit
Active
Country
Flag of USUS
Related business
Manufacturer
Unknown
Mission
Spacecraft
Bus & Motor
Unknown
Mass
Unknown
Launch date (UTC)
1963-05-09 (62 years ago)
Launch vehicle
Unknown
Launch site
Air Force Western Test Range (AFWTR)
Object type
Payload
Rocket body
Debris
Shape & HBR
Unknown shape, 0.3 m
Radar Cross Section
Medium (>0.1 m² and <1 m²)

Expand to show TLE details & history
Last TLE update: 6 hours ago

TLE from 6 hours ago
0 WESTFORD NEEDLES
1  2362U 63014M   25308.40367828  .00009176  00000-0  78384-1 0  9997
2  2362  85.2288   3.9457 2567046 297.1700  39.0751  8.85740588986856
Epoch: 2025-11-04T09:41Z
TLE epoch observation values (Epoch: 2025-11-04T09:41:17.803Z)
Latitude
-0.00001°
Longitude
174.73032°
Altitude
1,877.313 km
Speed
7.497 km/s
True Right ascension
00h 15m 46s
True Declination
0° 00' 00"
Sunlit
Object was in full shadow at epoch
Visualization orbit readout
Latitude
Unknown
Longitude
Unknown
Altitude
Unknown
Speed
Unknown
Apparent Right ascension
Unknown
Apparent Declination
Unknown
Sunlit
N/A
Visualization observer readout
Local Sidereal Time
11:35:16
Azimuth
Unknown
Elevation
Unknown
Doppler factor
Unknown
Orbital elements
Apogee altitude
6,019.086 km
Perigee altitude
954.373 km
Semi-major axis
9,864.866 km
Eccentricity
0.2567
Inclination
85.2288°
RAAN
3.9457°
Arg. of periapsis
297.17°
True anomaly
62.9328°
Mean anomaly
39.0751°
Eccentric anomaly
50.40942°
Mean motion
2.21517 °/min
Orbital period
162.52 mins
BSTAR
0.078384
Loading maneuver chart data...
Computing Atmospheric mass density...

Documentation

Showing up to 5 results
|